Home > Weather > Aghjabadi > Past weeks

Flag for Azerbaijan Weather for the Past 2 Weeks in Aghjabadi, Azerbaijan

Now
68 °F

Partly sunny.


Feels Like: 68 °F
Forecast: 54 / 71 °F
Wind: 13 mph from East

Location: Gyanca Airport

Current Time: Apr 30, 2016 at 3:16:16 PM

Latest Report: Apr 30, 2016 at 2:30 PM


Visibility: N/A

Pressure: 29.92 "Hg

Humidity: 60%

Dew Point: 54 °F

Location of AghjabadiLocation

Historic Weather in Aghjabadi — Graph

°F

Aghjabadi Temperature Yesterday

Maximum temperature yesterday: 64 °F (at 4:00 PM)
Minimum temperature yesterday: 55 °F (at 11:00 AM)
Average temperature yesterday: 60 °F

High & Low Weather Summary for the Past Weeks

 TemperatureHumidityPressure
High86 °F (Apr 26, 4:00 PM)100% (Apr 16, 12:30 AM)30.30 "Hg (Apr 16, 12:30 AM)
Low45 °F (Apr 23, 12:30 AM)16% (Apr 17, 5:30 PM)29.65 "Hg (Apr 25, 3:30 PM)
Average63 °F57%29.95 "Hg
* Reported Apr 15 2:00 PM — Apr 30 2:00 PM, Aghjabadi, Weather by CustomWeather, © 2016

Note: Actual official high and low records may vary slightly from our data, if they occured in-between our weather recording intervals... More about our weather records

Advertising

Aghjabadi Weather History for the Previous 24 Hours

Scroll right to see more
 ConditionsComfort  
Time TempWeatherWind HumidityBarometerVisibility
2:00 PM
Sat, Apr 30
70 °FPartly sunny.9 mph50%29.95 "HgN/A
1:30 PM68 °FPartly sunny.6 mph56%29.95 "HgN/A
1:00 PM70 °FPartly sunny.6 mph53%29.95 "HgN/A
12:30 PM68 °FPartly sunny.3 mph56%29.98 "HgN/A
12:00 PM68 °FPartly sunny.3 mph49%29.98 "HgN/A
11:30 AM68 °FPartly sunny.3 mph53%29.98 "HgN/A
10:30 AM64 °FPartly sunny.6 mph56%30.01 "HgN/A
10:00 AM63 °FPartly sunny.5 mph59%30.01 "HgN/A
9:30 AM63 °FPartly sunny.6 mph59%30.01 "HgN/A
9:00 AM61 °FPartly sunny.7 mph63%30.01 "HgN/A
8:30 AM59 °FPartly sunny.7 mph68%30.01 "HgN/A
8:00 AM57 °FOvercast.6 mph72%30.01 "HgN/A
7:30 AM57 °FOvercast.7 mph67%30.01 "HgN/A
6:30 AM55 °FOvercast.7 mph72%29.98 "HgN/A
6:00 AM57 °FOvercast.5 mph67%29.98 "HgN/A
5:32 AM55 °FCool.N/A72%29.98 "HgN/A
4:00 AM57 °FCool.5 mph67%30.01 "HgN/A
3:30 AM57 °FOvercast.5 mph72%30.01 "HgN/A
3:00 AM59 °FOvercast.3 mph72%30.01 "HgN/A
2:30 AM59 °FOvercast.5 mph68%30.01 "HgN/A
2:00 AM59 °FOvercast.5 mph68%30.01 "HgN/A
1:30 AM59 °FOvercast.3 mph72%30.01 "HgN/A
1:00 AM59 °FPartly cloudy.2 mph72%30.01 "HgN/A
12:30 AM59 °FPartly cloudy.5 mph72%30.04 "HgN/A
12:00 AM59 °FPartly cloudy.5 mph72%30.04 "HgN/A
11:30 PM
Fri, Apr 29
59 °FPartly cloudy.7 mph72%30.04 "HgN/A
11:00 PM59 °FPartly cloudy.8 mph77%30.04 "HgN/A
10:30 PM61 °FPartly cloudy.9 mph77%30.04 "HgN/A
9:30 PM63 °FPartly cloudy.No wind83%30.04 "HgN/A
9:00 PM63 °FPartly cloudy.No wind83%30.04 "HgN/A
7:30 PM63 °FBroken clouds.No wind77%30.01 "HgN/A
7:00 PM64 °FBroken clouds.No wind73%30.01 "HgN/A
6:30 PM64 °FBroken clouds.3 mph73%30.01 "HgN/A
6:00 PM64 °FBroken clouds.7 mph73%30.01 "HgN/A
5:30 PM64 °FPartly sunny.5 mph73%29.98 "HgN/A
5:00 PM64 °FPartly sunny.No wind78%29.98 "HgN/A
4:30 PM64 °FPartly sunny.7 mph73%29.98 "HgN/A
4:00 PM64 °FPartly sunny.6 mph73%29.98 "HgN/A
3:30 PM63 °FPartly sunny.7 mph83%29.98 "HgN/A
3:00 PM63 °FPartly sunny.1 mph83%29.98 "HgN/A
Weather by CustomWeather, © 2016

See weather overviewHow to use our weather pages